{"data":{"norad_id":59334,"epoch":"2026-05-25T04:33:03.250944Z","epoch_age_seconds":68869,"freshness":"FRESH","line1":"1 59334U 24057Q   26145.18962096  .00000124  00000+0  14035-4 0  9994","line2":"2 59334  43.0025 114.6156 0001137 269.9842  90.0879 15.27574153121542","mean_motion":15.27574153,"eccentricity":0.0001137,"inclination_deg":43.0025,"raan_deg":114.6156,"arg_perigee_deg":269.9842,"mean_anomaly_deg":90.0879,"bstar":1.4035e-5,"rev_number":12154,"period_min":94.267109532587,"perigee_km":482.28648526716,"apogee_km":483.84672296673,"semimajor_km":6861.2036041169,"source":"CELESTRAK","updated_at":"2026-05-25T13:38:18.905607Z"}}